�N����,����,�~����,�C��,���x,�C��,����,���ϕ���,�ő�u�ԕ���,�ő厞����,���˗�,�I�_���x,�n�����x,�ő啗���N��,DTYPE
"23/01/22","00:10",0.0,0.4,92.8,1020.6,317.6,2.8,4.3,325.1,0.00,-0.6,6.1,"00:00:56",1
"23/01/22","00:20",0.0,0.3,92.8,1020.4,305.7,1.8,2.9,305.4,0.00,-0.7,6.2,"00:10:40",1
"23/01/22","00:30",0.0,-0.2,92.8,1020.6,322.1,0.6,1.4,321.0,0.00,-1.2,6.0,"00:28:00",1
"23/01/22","00:40",0.0,-0.6,92.8,1021.1,306.6,1.3,2.0,324.6,0.00,-1.6,6.0,"00:37:12",1
"23/01/22","00:50",0.0,-1.0,93.2,1020.8,317.5,1.0,1.8,340.9,0.00,-1.9,5.8,"00:48:56",1
"23/01/22","01:00",0.0,-1.2,93.3,1020.4,312.6,1.3,2.1,333.1,0.00,-2.1,6.0,"00:53:28",1
"23/01/22","01:10",0.0,-1.5,93.6,1019.9,291.6,1.2,2.4,330.7,0.00,-2.4,5.8,"01:09:12",1
"23/01/22","01:20",0.0,-1.4,93.8,1019.9,325.0,2.0,2.6,336.9,0.00,-2.2,5.9,"01:13:52",1
"23/01/22","01:30",0.0,-1.6,94.0,1019.7,299.7,1.6,1.9,310.2,0.00,-2.4,6.0,"01:20:08",1
"23/01/22","01:40",0.0,-1.5,94.2,1020.1,291.7,1.6,2.0,316.3,0.00,-2.3,6.0,"01:36:48",1
"23/01/22","01:50",0.0,-1.4,94.4,1020.1,313.3,1.6,2.4,323.8,0.00,-2.1,5.7,"01:49:44",1
"23/01/22","02:00",0.0,-1.8,94.6,1019.9,321.9,1.8,2.7,322.8,0.00,-2.5,5.7,"01:54:40",1
"23/01/22","02:10",0.0,-1.9,94.9,1020.1,317.1,1.7,2.6,322.1,0.00,-2.6,5.8,"02:09:44",1
"23/01/22","02:20",0.0,-2.1,95.1,1020.1,310.8,2.2,2.8,322.3,0.00,-2.7,5.7,"02:10:08",1
"23/01/22","02:30",0.0,-2.0,95.3,1020.1,309.8,1.7,2.2,311.4,0.00,-2.6,5.6,"02:22:32",1
"23/01/22","02:40",0.0,-2.0,95.5,1020.4,299.8,1.8,2.2,313.4,0.00,-2.6,5.6,"02:39:28",1
"23/01/22","02:50",0.0,-2.0,95.6,1019.9,324.5,2.3,3.1,331.7,0.00,-2.6,5.5,"02:49:12",1
"23/01/22","03:00",0.0,-2.4,95.8,1019.9,309.5,1.8,2.8,332.5,0.00,-2.9,5.4,"02:50:08",1
"23/01/22","03:10",0.0,-2.5,96.0,1019.9,308.3,2.1,2.4,314.7,0.00,-3.0,5.7,"03:06:00",1
"23/01/22","03:20",0.0,-2.5,96.3,1019.9,303.3,1.6,2.0,300.7,0.00,-3.0,5.5,"03:15:12",1
"23/01/22","03:30",0.0,-2.4,96.2,1019.7,301.2,1.3,1.9,307.5,0.00,-2.9,5.4,"03:24:40",1
"23/01/22","03:40",0.0,-2.8,96.5,1019.9,311.0,2.6,3.1,324.4,0.00,-3.2,5.4,"03:37:44",1
"23/01/22","03:50",0.0,-2.7,96.7,1020.4,303.6,2.3,2.9,324.1,0.00,-3.1,5.4,"03:40:16",1
"23/01/22","04:00",0.0,-2.6,96.7,1020.4,308.2,2.1,2.6,313.2,0.00,-3.0,5.4,"03:50:40",1
"23/01/22","04:10",0.0,-2.4,97.0,1019.7,319.0,2.3,3.3,316.2,0.00,-2.8,5.4,"04:02:32",1
"23/01/22","04:20",0.0,-2.4,97.1,1020.1,317.2,2.1,2.5,322.2,0.00,-2.8,5.4,"04:16:40",1
"23/01/22","04:30",0.0,-2.4,97.1,1019.7,310.9,2.2,2.7,317.8,0.00,-2.8,5.3,"04:28:56",1
"23/01/22","04:40",0.0,-2.7,97.2,1019.9,294.7,1.5,2.1,307.7,0.00,-3.0,5.2,"04:30:16",1
"23/01/22","04:50",0.0,-2.8,97.4,1019.7,289.4,1.2,1.8,288.3,0.00,-3.1,5.2,"04:49:14",1
"23/01/22","05:00",0.0,-2.5,97.6,1019.4,300.5,1.7,2.2,324.1,0.00,-2.8,5.0,"04:56:40",1
"23/01/22","05:10",0.0,-2.7,97.6,1019.4,313.3,2.5,3.3,317.8,0.00,-3.0,5.1,"05:08:16",1
"23/01/22","05:20",0.0,-2.8,97.7,1019.4,307.2,2.1,2.8,318.9,0.00,-3.1,5.2,"05:11:12",1
"23/01/22","05:30",0.0,-2.8,97.9,1019.2,304.3,1.7,2.0,315.2,0.00,-3.0,4.9,"05:28:00",1
"23/01/22","05:40",0.0,-2.8,98.0,1019.0,300.7,1.8,2.4,314.2,0.00,-3.0,5.2,"05:39:36",1
"23/01/22","05:50",0.0,-2.6,97.3,1019.2,302.0,2.1,2.6,317.9,0.00,-2.9,5.3,"05:42:40",1
"23/01/22","06:00",0.0,-2.7,98.1,1019.2,300.4,1.7,2.0,310.4,0.00,-2.9,5.0,"05:56:48",1
"23/01/22","06:10",0.0,-2.4,97.4,1019.4,312.0,2.2,2.6,319.3,0.00,-2.7,4.9,"06:07:44",1
"23/01/22","06:20",0.0,-2.6,98.0,1019.4,314.7,2.5,3.6,324.9,0.00,-2.8,5.1,"06:14:00",1
"23/01/22","06:30",0.0,-2.4,97.6,1019.2,293.2,1.7,1.8,294.8,0.00,-2.7,5.0,"06:23:44",1
"23/01/22","06:40",0.0,-2.5,98.2,1019.2,291.9,1.8,2.0,295.6,0.00,-2.7,4.8,"06:38:00",1
"23/01/22","06:50",0.0,-2.3,97.7,1019.0,300.5,1.8,2.5,311.8,0.00,-2.6,4.7,"06:49:36",1
"23/01/22","07:00",0.0,-2.4,98.3,1019.0,310.7,2.0,2.6,318.4,0.00,-2.6,4.9,"06:50:56",1
"23/01/22","07:10",0.0,-2.9,97.8,1019.2,309.3,2.6,3.1,319.6,0.00,-3.2,4.8,"07:05:04",1
"23/01/22","07:20",0.0,-3.0,98.6,1019.0,287.9,1.7,2.1,304.5,0.00,-3.1,4.9,"07:10:32",1
"23/01/22","07:30",0.0,-2.5,98.0,1019.4,311.1,2.1,2.9,323.0,0.00,-2.7,4.7,"07:29:12",1
"23/01/22","07:40",0.0,-2.7,98.0,1019.4,313.2,2.1,2.9,321.7,0.00,-2.9,4.7,"07:31:36",1
"23/01/22","07:50",0.0,-2.2,98.1,1019.4,292.3,2.1,2.4,270.9,0.00,-2.4,4.7,"07:46:48",1
"23/01/22","08:00",0.0,-1.8,98.0,1019.9,296.1,1.8,2.6,311.3,0.00,-2.0,4.7,"07:56:48",1
"23/01/22","08:10",0.0,-1.5,97.9,1020.4,307.2,0.7,1.6,312.4,0.00,-1.7,4.8,"08:07:52",1
"23/01/22","08:20",0.0,-1.7,98.7,1020.6,311.6,1.3,2.1,317.6,0.02,-1.8,4.6,"08:16:08",1
"23/01/22","08:30",0.0,-1.5,98.1,1021.3,321.4,1.8,3.1,323.2,0.01,-1.7,4.7,"08:24:56",1
"23/01/22","08:40",0.0,-1.2,98.0,1021.1,292.2,0.5,1.8,334.7,0.00,-1.4,4.5,"08:30:08",1
"23/01/22","08:50",0.0,-1.1,98.1,1021.3,273.3,0.8,1.4,268.7,0.01,-1.3,4.7,"08:46:14",1
"23/01/22","09:00",0.0,-0.9,98.1,1021.3,299.3,0.8,1.3,337.3,0.02,-1.1,4.5,"08:50:08",1
"23/01/22","09:10",0.0,-0.5,98.2,1021.8,289.8,1.5,2.9,324.7,0.04,-0.7,4.8,"09:00:02",1
"23/01/22","09:20",0.0,0.1,98.2,1022.0,307.3,2.5,2.9,317.1,0.07,-0.1,4.7,"09:12:32",1
"23/01/22","09:30",0.0,0.8,98.1,1021.8,279.1,2.0,2.6,254.1,0.08,0.6,4.6,"09:27:02",1
"23/01/22","09:40",0.0,1.6,97.8,1022.0,284.9,2.1,5.2,262.7,0.10,1.3,4.4,"09:38:26",1
"23/01/22","09:50",0.0,1.9,98.2,1022.0,271.2,2.3,3.3,271.2,0.15,1.7,4.6,"09:42:12",1
"23/01/22","10:00",0.2,2.8,97.3,1022.7,269.0,1.0,2.0,302.3,0.19,2.5,4.8,"09:50:48",1
"23/01/22","10:10",0.0,3.0,97.2,1022.7,205.8,0.6,1.2,127.2,0.22,2.6,4.6,"10:00:32",1
"23/01/22","10:20",0.0,3.6,97.0,1022.7,268.7,1.0,1.8,260.6,0.25,3.2,4.6,"10:19:08",1
"23/01/22","10:30",0.0,4.0,96.0,1023.0,315.1,0.8,2.1,325.8,0.28,3.5,4.4,"10:25:32",1
"23/01/22","10:40",0.0,4.1,95.2,1022.7,252.3,0.7,0.9,274.9,0.28,3.4,4.7,"10:31:12",1
"23/01/22","10:50",0.0,4.6,94.0,1023.2,228.7,0.8,0.8,228.7,0.34,3.8,4.6,"10:48:56",1
"23/01/22","11:00",0.0,5.1,91.6,1023.0,184.6,1.2,2.4,176.6,0.41,3.9,4.5,"10:56:12",1
"23/01/22","11:10",0.0,5.8,87.2,1022.7,216.4,1.0,2.0,173.7,0.39,3.9,4.9,"11:01:00",1
"23/01/22","11:20",0.0,5.6,82.5,1023.2,164.2,1.0,2.5,135.3,0.23,2.9,4.9,"11:15:56",1
"23/01/22","11:30",0.0,6.1,79.6,1023.2,189.3,1.3,2.8,107.3,0.35,2.9,5.0,"11:27:44",1
"23/01/22","11:40",0.0,5.8,77.4,1023.0,136.3,2.1,4.9,158.0,0.28,2.2,5.0,"11:38:18",1
"23/01/22","11:50",0.0,6.1,76.3,1022.5,210.1,1.1,2.4,168.3,0.28,2.3,5.2,"11:44:24",1
"23/01/22","12:00",0.0,6.3,75.2,1022.0,139.7,1.5,3.6,116.5,0.38,2.3,5.2,"11:56:40",1
"23/01/22","12:10",0.0,6.8,72.6,1021.8,205.7,1.2,2.5,203.2,0.40,2.3,5.3,"12:05:08",1
"23/01/22","12:20",0.0,6.3,72.0,1022.0,51.7,1.2,2.4,162.0,0.23,1.7,5.3,"12:11:30",1
"23/01/22","12:30",0.0,6.3,72.4,1021.3,170.3,1.5,3.9,107.8,0.15,1.7,5.4,"12:29:12",1
"23/01/22","12:40",0.0,6.0,72.4,1021.3,199.3,1.8,3.2,144.5,0.18,1.5,5.6,"12:34:02",1
"23/01/22","12:50",0.0,6.8,71.5,1020.8,193.6,1.8,4.5,209.7,0.34,2.1,5.5,"12:41:54",1
"23/01/22","13:00",0.0,7.2,70.3,1020.6,204.8,1.8,3.7,213.7,0.40,2.2,5.6,"12:56:10",1
"23/01/22","13:10",0.0,7.1,68.9,1020.6,145.1,1.6,3.2,127.9,0.28,1.8,5.8,"13:07:54",1
"23/01/22","13:20",0.0,7.1,68.6,1020.1,184.9,1.5,2.8,188.3,0.21,1.8,5.7,"13:10:10",1
"23/01/22","13:30",0.0,7.5,69.0,1019.9,194.1,1.2,2.5,95.7,0.33,2.2,5.9,"13:21:12",1
"23/01/22","13:40",0.0,7.8,67.6,1019.9,205.0,1.8,3.6,102.4,0.36,2.2,5.9,"13:39:34",1
"23/01/22","13:50",0.0,7.7,66.9,1019.9,152.9,1.1,2.4,112.3,0.26,2.0,6.2,"13:45:24",1
"23/01/22","14:00",0.0,8.4,66.9,1019.7,200.6,1.1,3.1,108.4,0.34,2.7,6.2,"13:52:32",1
"23/01/22","14:10",0.0,8.6,65.6,1019.7,202.7,1.5,2.5,207.9,0.35,2.6,6.2,"14:07:18",1
"23/01/22","14:20",0.0,8.2,63.9,1019.4,228.7,1.1,3.6,201.2,0.15,1.8,6.1,"14:10:34",1
"23/01/22","14:30",0.0,7.8,65.5,1019.4,223.7,1.6,2.8,236.0,0.13,1.8,6.3,"14:23:28",1
"23/01/22","14:40",0.0,8.0,65.1,1019.4,238.3,0.8,2.2,254.1,0.11,1.9,6.4,"14:35:52",1
"23/01/22","14:50",0.0,7.9,64.0,1019.7,330.1,1.0,1.8,235.9,0.08,1.6,6.5,"14:40:16",1
"23/01/22","15:00",0.0,7.9,64.4,1019.0,232.2,1.5,2.8,253.9,0.08,1.6,6.4,"14:53:56",1
"23/01/22","15:10",0.0,7.9,63.9,1019.0,235.2,1.5,3.3,241.6,0.09,1.5,6.3,"15:08:00",1
"23/01/22","15:20",0.0,8.3,63.4,1019.0,235.5,1.2,2.6,243.0,0.12,1.8,6.7,"15:13:12",1
"23/01/22","15:30",0.0,8.2,63.0,1019.0,251.4,1.6,2.7,230.3,0.09,1.6,6.5,"15:27:28",1
"23/01/22","15:40",0.0,8.1,63.4,1019.0,228.4,1.5,2.9,229.6,0.08,1.6,6.8,"15:34:56",1
"23/01/22","15:50",0.0,8.1,62.8,1019.0,199.8,1.1,1.9,175.4,0.07,1.5,6.6,"15:44:08",1
"23/01/22","16:00",0.0,8.3,61.9,1019.2,225.0,0.8,1.7,199.4,0.10,1.5,6.7,"15:53:04",1
"23/01/22","16:10",0.0,8.2,61.9,1019.2,207.9,1.3,2.4,211.7,0.06,1.4,6.8,"16:05:52",1
"23/01/22","16:20",0.0,8.1,61.8,1019.0,192.2,1.3,2.7,197.1,0.05,1.3,6.8,"16:15:04",1
"23/01/22","16:30",0.0,8.0,62.6,1019.2,206.3,1.2,2.9,213.2,0.04,1.3,6.9,"16:21:04",1
"23/01/22","16:40",0.0,8.1,62.5,1018.7,224.0,1.3,2.9,238.4,0.05,1.4,6.7,"16:36:16",1
"23/01/22","16:50",0.0,8.1,62.5,1019.0,234.2,1.0,2.7,245.1,0.03,1.4,7.0,"16:40:24",1
"23/01/22","17:00",0.0,8.0,62.3,1018.7,200.4,0.5,1.3,224.0,0.02,1.3,6.9,"16:50:02",1
"23/01/22","17:10",0.0,7.9,62.1,1018.7,248.1,1.3,2.7,244.9,0.01,1.1,7.0,"17:01:52",1
"23/01/22","17:20",0.0,7.7,62.5,1018.5,243.8,1.2,2.1,247.7,0.00,1.0,6.9,"17:12:32",1
"23/01/22","17:30",0.0,7.6,63.2,1018.0,282.8,1.0,1.9,321.4,0.01,1.1,6.9,"17:28:56",1
"23/01/22","17:40",0.0,7.3,66.9,1018.2,321.7,2.0,2.5,328.8,0.00,1.6,7.0,"17:34:32",1
"23/01/22","17:50",0.0,6.9,69.9,1018.0,315.3,2.3,3.1,322.0,0.00,1.8,7.1,"17:43:44",1
"23/01/22","18:00",0.0,6.4,71.5,1018.0,309.1,2.5,3.1,313.9,0.00,1.7,6.9,"17:53:20",1
"23/01/22","18:10",0.0,6.0,72.6,1018.0,307.5,2.0,3.2,322.0,0.00,1.5,7.1,"18:06:56",1
"23/01/22","18:20",0.0,5.7,73.7,1018.2,319.6,2.0,2.7,321.9,0.00,1.4,6.9,"18:16:56",1
"23/01/22","18:30",0.0,5.3,74.4,1018.0,301.6,1.7,2.4,297.1,0.00,1.2,6.8,"18:22:16",1
"23/01/22","18:40",0.0,5.1,75.2,1018.2,278.0,1.1,1.7,278.3,0.00,1.1,6.9,"18:34:40",1
"23/01/22","18:50",0.0,5.3,75.9,1018.0,264.9,1.6,2.2,266.2,0.00,1.4,7.0,"18:40:02",1
"23/01/22","19:00",0.0,5.3,76.3,1017.8,292.0,1.3,2.2,320.4,0.00,1.5,6.9,"18:58:24",1
"23/01/22","19:10",0.0,5.2,77.0,1018.5,285.7,1.8,3.7,313.5,0.00,1.5,7.0,"19:08:32",1
"23/01/22","19:20",0.0,5.2,77.5,1018.7,272.7,2.0,2.8,266.3,0.00,1.6,6.7,"19:14:40",1
"23/01/22","19:30",0.0,5.3,77.8,1019.2,268.5,1.1,2.4,253.3,0.00,1.8,7.0,"19:20:24",1
"23/01/22","19:40",0.0,5.4,78.0,1018.7,291.5,2.3,3.3,308.3,0.00,1.9,6.8,"19:35:18",1
"23/01/22","19:50",0.0,5.3,78.4,1019.0,316.0,2.7,3.9,315.1,0.00,1.9,7.0,"19:49:38",1
"23/01/22","20:00",0.0,5.2,78.8,1018.5,333.8,1.7,3.7,290.2,0.00,1.9,7.0,"19:50:48",1
"23/01/22","20:10",0.0,5.0,79.3,1018.0,302.7,2.0,2.7,310.2,0.00,1.8,6.8,"20:00:40",1
"23/01/22","20:20",0.0,4.9,79.7,1018.5,283.2,1.6,2.0,295.0,0.00,1.7,6.7,"20:12:00",1
"23/01/22","20:30",0.0,4.8,80.2,1018.2,300.1,1.7,2.4,313.6,0.00,1.7,6.8,"20:24:56",1
"23/01/22","20:40",0.0,4.7,80.6,1018.5,307.7,0.7,2.1,323.3,0.00,1.7,6.8,"20:30:48",1
"23/01/22","20:50",0.0,4.6,81.1,1018.5,315.5,0.8,1.8,271.9,0.00,1.7,6.7,"20:47:18",1
"23/01/22","21:00",0.0,4.4,81.9,1018.7,311.5,1.7,2.1,305.7,0.00,1.6,6.7,"20:54:26",1
"23/01/22","21:10",0.0,4.4,82.9,1018.7,306.2,2.3,3.4,319.7,0.00,1.8,6.8,"21:06:10",1
"23/01/22","21:20",0.0,4.6,83.4,1018.2,322.4,2.3,3.4,312.0,0.00,2.1,6.7,"21:11:52",1
"23/01/22","21:30",0.0,4.6,83.7,1018.2,306.8,2.2,3.3,318.5,0.00,2.1,6.7,"21:23:08",1
"23/01/22","21:40",0.0,4.6,83.9,1018.2,289.1,1.8,2.2,272.1,0.00,2.2,6.7,"21:34:20",1
"23/01/22","21:50",0.0,4.5,84.1,1017.5,292.4,2.0,2.6,312.1,0.00,2.1,6.7,"21:42:54",1
"23/01/22","22:00",0.0,4.4,84.2,1017.5,308.0,2.2,3.3,317.4,0.00,2.0,6.6,"21:51:46",1
"23/01/22","22:10",0.0,4.1,84.5,1017.1,266.2,1.2,2.5,259.1,0.00,1.8,6.6,"22:09:10",1
"23/01/22","22:20",0.0,3.9,84.9,1017.5,301.9,1.8,2.1,315.9,0.00,1.6,6.8,"22:13:58",1
"23/01/22","22:30",0.0,3.8,85.4,1017.3,328.1,1.8,2.5,331.7,0.00,1.6,6.6,"22:27:20",1
"23/01/22","22:40",0.0,3.6,86.1,1017.3,304.7,1.5,1.9,320.1,0.00,1.5,6.6,"22:31:04",1
"23/01/22","22:50",0.0,3.6,86.7,1017.1,285.2,1.3,1.8,306.1,0.00,1.6,6.8,"22:43:48",1
"23/01/22","23:00",0.0,3.8,87.1,1017.1,282.5,1.7,2.6,266.8,0.00,1.9,6.7,"22:59:36",1
"23/01/22","23:10",0.0,4.0,87.1,1016.8,299.0,2.3,3.2,321.5,0.00,2.1,6.4,"23:07:06",1
"23/01/22","23:20",0.0,4.0,87.1,1017.1,328.2,1.8,2.8,307.4,0.00,2.1,6.6,"23:10:32",1
"23/01/22","23:30",0.0,3.9,87.1,1017.1,273.7,0.7,2.0,330.2,0.00,2.0,6.6,"23:20:08",1
"23/01/22","23:40",0.0,3.7,87.3,1016.6,288.2,0.8,1.4,317.8,0.00,1.8,6.5,"23:37:42",1
"23/01/22","23:50",0.0,3.8,87.6,1016.6,332.6,1.6,2.6,333.2,0.00,2.0,6.5,"23:47:36",1
"23/01/22","24:00",0.0,3.5,87.9,1016.6,280.5,1.1,2.0,314.1,0.00,1.7,6.5,"23:51:44",1
